• En España
  • Lista de países
  • Para 7 días
  • Temperatura del agua
  • Mapa Satelital
  • El tiempo en el mapa
  • Informadores
  • user-avatar
    Iniciar sesión

    Tiempo cada hora Meppel

    Hoy, 24 Agosto, Miércoles

    Tiempo Temperatura Precipitaciones Viento Presión Humedad
    00:00 +19°C° 0 mm 3 mps 767 mmHg 86%
    01:00 +19°C° 0 mm 3 mps 767 mmHg 86%
    02:00 +19°C° 0 mm 3 mps 767 mmHg 87%
    03:00 +18°C° 0 mm 3 mps 766 mmHg 87%
    04:00 +19°C° 0 mm 3 mps 766 mmHg 85%
    05:00 +19°C° 0 mm 3 mps 766 mmHg 84%
    06:00 +20°C° 0 mm 3 mps 766 mmHg 79%
    07:00 +22°C° 0 mm 3 mps 766 mmHg 74%
    08:00 +25°C° 0 mm 3 mps 766 mmHg 68%
    09:00 +26°C° 0 mm 4 mps 766 mmHg 63%
    10:00 +28°C° 0 mm 4 mps 766 mmHg 60%
    11:00 +29°C° 0 mm 4 mps 765 mmHg 57%
    12:00 +30°C° 0 mm 5 mps 765 mmHg 54%
    13:00 +32°C° 0 mm 4 mps 765 mmHg 54%
    14:00 +32°C° 0 mm 4 mps 765 mmHg 55%
    15:00 +32°C° 0 mm 4 mps 764 mmHg 55%
    16:00 +30°C° 0 mm 4 mps 764 mmHg 61%
    17:00 +28°C° 0 mm 3 mps 764 mmHg 68%
    18:00 +27°C° 0 mm 3 mps 764 mmHg 74%
    19:00 +26°C° 0 mm 3 mps 764 mmHg 75%
    20:00 +25°C° 0 mm 3 mps 764 mmHg 77%
    21:00 +24°C° 0 mm 3 mps 764 mmHg 79%
    22:00 +22°C° 0 mm 3 mps 764 mmHg 80%
    23:00 +22°C° 0 mm 3 mps 764 mmHg 82%

    Mañana, 25 Agosto, Jueves

    Tiempo Temperatura Precipitaciones Viento Presión Humedad
    00:00 +21°C° 0 mm 3 mps 764 mmHg 83%
    01:00 +21°C° 0 mm 3 mps 764 mmHg 85%
    02:00 +21°C° 0 mm 3 mps 763 mmHg 86%
    03:00 +20°C° 0 mm 3 mps 763 mmHg 88%
    04:00 +20°C° 0 mm 3 mps 763 mmHg 86%
    05:00 +21°C° 0 mm 3 mps 763 mmHg 85%
    06:00 +21°C° 0 mm 3 mps 763 mmHg 84%
    07:00 +24°C° 0 mm 3 mps 763 mmHg 78%
    08:00 +25°C° 0 mm 4 mps 763 mmHg 72%
    09:00 +27°C° 0 mm 4 mps 763 mmHg 66%
    10:00 +28°C° 0 mm 4 mps 762 mmHg 63%
    11:00 +29°C° 0 mm 4 mps 762 mmHg 59%
    12:00 +30°C° 0 mm 4 mps 762 mmHg 56%
    13:00 +32°C° 0 mm 4 mps 762 mmHg 55%
    14:00 +32°C° 0 mm 4 mps 761 mmHg 54%
    15:00 +32°C° 0 mm 4 mps 761 mmHg 53%
    16:00 +30°C° 0 mm 3 mps 761 mmHg 59%
    17:00 +28°C° 0 mm 3 mps 761 mmHg 65%
    18:00 +27°C° 0 mm 2 mps 760 mmHg 70%
    19:00 +26°C° 0 mm 2 mps 760 mmHg 72%
    20:00 +25°C° 0 mm 3 mps 760 mmHg 73%
    21:00 +24°C° 0 mm 3 mps 760 mmHg 75%
    22:00 +22°C° 0 mm 3 mps 760 mmHg 77%
    23:00 +22°C° 0 mm 3 mps 760 mmHg 79%

    Pasado mañana, 26 Agosto, Viernes

    Tiempo Temperatura Precipitaciones Viento Presión Humedad
    00:00 +21°C° 0 mm 3 mps 760 mmHg 81%
    01:00 +21°C° 0 mm 3 mps 760 mmHg 83%
    02:00 +20°C° 0 mm 3 mps 760 mmHg 86%
    03:00 +20°C° 0 mm 3 mps 760 mmHg 89%
    04:00 +21°C° 0 mm 3 mps 760 mmHg 88%
    05:00 +21°C° 0 mm 3 mps 760 mmHg 87%
    06:00 +21°C° 0 mm 3 mps 760 mmHg 86%
    07:00 +24°C° 0 mm 3 mps 760 mmHg 80%
    08:00 +26°C° 0 mm 3 mps 760 mmHg 74%
    09:00 +28°C° 0 mm 3 mps 760 mmHg 68%
    10:00 +29°C° 0 mm 3 mps 760 mmHg 64%
    11:00 +32°C° 0 mm 4 mps 760 mmHg 60%
    12:00 +33°C° 0 mm 4 mps 761 mmHg 56%
    13:00 +32°C° 0 mm 4 mps 761 mmHg 58%
    14:00 +32°C° 0 mm 4 mps 761 mmHg 60%
    15:00 +30°C° 0 mm 4 mps 761 mmHg 62%
    16:00 +28°C° 0 mm 4 mps 761 mmHg 69%
    17:00 +26°C° 0 mm 4 mps 761 mmHg 75%
    18:00 +23°C° 0 mm 4 mps 761 mmHg 82%
    19:00 +22°C° 0 mm 4 mps 762 mmHg 86%
    20:00 +20°C° 0 mm 3 mps 762 mmHg 90%
    21:00 +19°C° 0 mm 3 mps 763 mmHg 93%
    22:00 +18°C° 0 mm 3 mps 763 mmHg 95%
    23:00 +18°C° 0 mm 3 mps 763 mmHg 96%

    27 Agosto, Sábado

    Tiempo Temperatura Precipitaciones Viento Presión Humedad
    00:00 +18°C° 0 mm 3 mps 763 mmHg 97%
    01:00 +17°C° 0 mm 3 mps 763 mmHg 97%
    02:00 +17°C° 0 mm 3 mps 763 mmHg 97%
    03:00 +17°C° 0 mm 3 mps 763 mmHg 97%
    04:00 +17°C° 0 mm 3 mps 763 mmHg 95%
    05:00 +18°C° 0 mm 4 mps 763 mmHg 94%
    06:00 +18°C° 0 mm 4 mps 763 mmHg 92%
    07:00 +19°C° 0 mm 4 mps 763 mmHg 87%
    08:00 +21°C° 0 mm 4 mps 763 mmHg 82%
    09:00 +22°C° 0 mm 4 mps 763 mmHg 78%
    10:00 +25°C° 0 mm 4 mps 762 mmHg 74%
    11:00 +26°C° 0 mm 5 mps 762 mmHg 70%
    12:00 +28°C° 0 mm 5 mps 761 mmHg 66%
    13:00 +29°C° 0,1 mm 5 mps 761 mmHg 66%
    14:00 +29°C° 0,1 mm 5 mps 760 mmHg 65%
    15:00 +30°C° 0,1 mm 5 mps 760 mmHg 64%
    16:00 +29°C° 2,4 mm 5 mps 759 mmHg 71%
    17:00 +27°C° 2,4 mm 5 mps 759 mmHg 78%
    18:00 +25°C° 2,4 mm 4 mps 759 mmHg 85%
    19:00 +25°C° 0,5 mm 4 mps 758 mmHg 86%
    20:00 +23°C° 0,5 mm 4 mps 758 mmHg 88%
    21:00 +23°C° 0,5 mm 4 mps 758 mmHg 90%
    22:00 +22°C° 0,3 mm 4 mps 758 mmHg 90%
    23:00 +22°C° 0,3 mm 3 mps 757 mmHg 90%

    28 Agosto, Domingo

    Tiempo Temperatura Precipitaciones Viento Presión Humedad
    00:00 +22°C° 0,3 mm 3 mps 757 mmHg 90%
    01:00 +21°C° 0,1 mm 3 mps 757 mmHg 90%
    02:00 +21°C° 0,1 mm 3 mps 757 mmHg 90%
    03:00 +20°C° 0,1 mm 3 mps 757 mmHg 90%
    04:00 +20°C° 0 mm 4 mps 757 mmHg 91%
    05:00 +20°C° 0 mm 5 mps 757 mmHg 91%
    06:00 +20°C° 0 mm 5 mps 757 mmHg 92%
    07:00 +20°C° 0 mm 5 mps 758 mmHg 90%
    08:00 +20°C° 0 mm 6 mps 758 mmHg 89%
    09:00 +21°C° 0 mm 6 mps 759 mmHg 88%
    10:00 +21°C° 0,1 mm 6 mps 759 mmHg 87%
    11:00 +21°C° 0,1 mm 6 mps 760 mmHg 86%
    12:00 +20°C° 0,1 mm 6 mps 760 mmHg 85%
    13:00 +21°C° 0,1 mm 5 mps 760 mmHg 83%
    14:00 +21°C° 0,1 mm 5 mps 761 mmHg 80%
    15:00 +21°C° 0,1 mm 4 mps 761 mmHg 78%
    16:00 +20°C° 0 mm 4 mps 761 mmHg 80%
    17:00 +19°C° 0 mm 3 mps 761 mmHg 81%
    18:00 +19°C° 0 mm 2 mps 761 mmHg 83%
    19:00 +18°C° 0 mm 2 mps 761 mmHg 86%
    20:00 +17°C° 0 mm 2 mps 762 mmHg 89%
    21:00 +16°C° 0 mm 1 mps 762 mmHg 92%
    22:00 +15°C° 0 mm 1 mps 762 mmHg 93%
    23:00 +14°C° 0 mm 1 mps 761 mmHg 94%

    29 Agosto, Lunes

    Tiempo Temperatura Precipitaciones Viento Presión Humedad
    00:00 +14°C° 0 mm 1 mps 761 mmHg 94%
    01:00 +14°C° 0 mm 1 mps 761 mmHg 94%
    02:00 +14°C° 0 mm 1 mps 761 mmHg 94%
    03:00 +14°C° 0 mm 1 mps 760 mmHg 95%
    04:00 +14°C° 0,2 mm 1 mps 760 mmHg 94%
    05:00 +15°C° 0,2 mm 1 mps 760 mmHg 92%
    06:00 +16°C° 0,2 mm 1 mps 760 mmHg 91%
    07:00 +16°C° 0,7 mm 1 mps 760 mmHg 91%
    08:00 +16°C° 0,7 mm 1 mps 759 mmHg 90%
    09:00 +18°C° 0,7 mm 1 mps 759 mmHg 90%
    10:00 +17°C° 0,2 mm 2 mps 759 mmHg 87%
    11:00 +18°C° 0,2 mm 2 mps 759 mmHg 85%
    12:00 +19°C° 0,2 mm 2 mps 759 mmHg 82%
    13:00 +19°C° 0,2 mm 2 mps 759 mmHg 80%
    14:00 +20°C° 0,2 mm 3 mps 760 mmHg 77%
    15:00 +20°C° 0,2 mm 3 mps 760 mmHg 75%
    16:00 +19°C° 0,1 mm 3 mps 760 mmHg 79%
    17:00 +18°C° 0,1 mm 2 mps 760 mmHg 83%
    18:00 +17°C° 0,1 mm 2 mps 760 mmHg 87%
    19:00 +16°C° 0 mm 2 mps 760 mmHg 90%
    20:00 +15°C° 0 mm 2 mps 761 mmHg 92%
    21:00 +14°C° 0 mm 2 mps 761 mmHg 94%
    22:00 +14°C° 0 mm 1 mps 761 mmHg 94%
    23:00 +13°C° 0 mm 1 mps 762 mmHg 94%
    Mostrar más